Regional Weather Roundup
Issued by NWS

Home | Current Version | Previous Version | Graphics & Text | Print | Product List | Glossary On
Versions: 1 2 3 4 5 6 7 8 9 10 11 12 13 14 15 16 17 18 19 20 21 22 23 24 25 26 27 28 29 30 31 32 33 34 35 36 37 38 39 40 41 42 43 44 45 46 47 48 49 50
000
ASUS45 KPSR 212310
RWRAZ

ARIZONA HOURLY REGIONAL WEATHER ROUNDUP
NATIONAL WEATHER SERVICE PHOENIX AZ
400 PM MST SAT APR 21 2018

NOTE: FAIR INDICATES FEW OR NO CLOUDS BELOW 12,000 FEET WITH NO
SIGNIFICANT WEATHER AND/OR OBSTRUCTIONS TO VISIBILITY.

AZZ001>003-036-220000-
NORTHWEST ARIZONA

CITY           SKY/WX    TMP DP  RH WIND       PRES   REMARKS
BULLHEAD CITY  SUNNY     91  21   8 NW10G18   29.90F
KINGMAN        SUNNY     81  23  11 CALM      30.05F
$$

AZZ004>008-015-016-018-220000-
NORTH CENTRAL ARIZONA

CITY           SKY/WX    TMP DP  RH WIND       PRES   REMARKS
GRAND CANYON   SUNNY     66  19  16 NE7       30.20S
WILLIAMS       SUNNY     66  18  15 NW7       30.17F
PRESCOTT       SUNNY     74  12   9 NE7       30.11F
FLAGSTAFF      SUNNY     66  21  18 NE12G21   30.19F
PAYSON         SUNNY     75  23  14 VRB3G15   30.09F
PAGE           SUNNY     74  24  15 VRB3      30.07F
$$

AZZ009>014-017-220000-
NORTHEAST ARIZONA

CITY           SKY/WX    TMP DP  RH WIND       PRES   REMARKS
WINSLOW        SUNNY     73  26  17 N10       30.12F
SAINT JOHNS    SUNNY     66  30  26 VRB7G20   30.14S
WINDOW ROCK    SUNNY     65  27  23 NW9G24    30.15S
SHOW LOW       SUNNY     64  27  24 N14G21    30.19F
$$

AZZ540-542>544-546-548-220000-
GREATER PHOENIX AREA

CITY           SKY/WX    TMP DP  RH WIND       PRES   REMARKS
PHOENIX        MOSUNNY   88  29  12 NW7G17    29.89F
BUCKEYE        MOSUNNY   84  36  17 S9        29.91F
GLENDALE       MOSUNNY   90  28  11 W6        29.91F
LUKE AFB       SUNNY     87  30  13 CALM      29.89F
DEER VALLEY    SUNNY     86  26  11 W7        29.91F
SCOTTSDALE     SUNNY     88  32  13 NW8       29.92F
MESA-FALCON    MOSUNNY   84  32  15 VRB7      29.92F
MESA-GATEWAY   MOSUNNY   86  30  13 W5        29.92F
CHANDLER       PTSUNNY   86  27  11 VRB5      29.91F
$$

AZZ539-553-220000-
SOUTHWEST MARICOPA COUNTY AND PINAL COUNTY

CITY           SKY/WX    TMP DP  RH WIND       PRES   REMARKS
CASA GRANDE    MOSUNNY   84  30  14 VRB5      29.93F
GILA BEND      FAIR      88  24  10 CALM      29.90F
$$

AZZ503-504-507>509-220000-
SOUTHEAST ARIZONA

CITY           SKY/WX    TMP DP  RH WIND       PRES   REMARKS
TUCSON         PTSUNNY   83  24  11 NW7       29.98F
DAVIS-MONTHAN  PTSUNNY   83  27  13 W5        29.96
NOGALES        MOSUNNY   80  19  10 VRB3      30.01F
SIERRA VISTA   MOSUNNY   76  10   8 CALM      30.07S
DOUGLAS        PTSUNNY   77  16  10 NW6       30.03F
SAFFORD        SUNNY     81  25  12 VRB7      29.96F
$$

AZZ532-220000-
SOUTHWEST ARIZONA

CITY           SKY/WX    TMP DP  RH WIND       PRES   REMARKS
YUMA           SUNNY     88  33  14 W5        29.90F
$$

CAZ041-043-047-048-061-525>527-560>570-220000-
SOUTHERN CALIFORNIA

CITY           SKY/WX    TMP DP  RH WIND       PRES   REMARKS
DOWNTOWN L.A.  MOSUNNY   78  48  34 VRB6      29.95F
L.A. AIRPORT   MOSUNNY   67  50  54 W17       29.98F
SAN DIEGO      PTSUNNY   69  50  50 NW12      29.99F
BURBANK        SUNNY     87  30  13 S12       29.95F
ONTARIO        PTSUNNY   86  39  19 W16G23    29.95F
RIVERSIDE      PTSUNNY   86  31  13 W17       29.94F
PALM SPRINGS   PTSUNNY   95  26   8 E8        29.91F
EL CENTRO NAS  PTSUNNY   91  22   8 SW5       29.91F
IMPERIAL       PTSUNNY   89  33  13 W5        29.89F
BLYTHE         SUNNY     90  28  11 SE3       29.90F
NEEDLES        SUNNY     92  16   6 VRB5      29.92F
$$

NVZ020-UTZ003-220000-
SOUTHERN NEVADA-UTAH

CITY           SKY/WX    TMP DP  RH WIND       PRES   REMARKS
LAS VEGAS      MOSUNNY   84  26  12 CALM      30.01F
SALT LAKE CITY MOSUNNY   69  22  16 NW9       30.15F
$$

NMZ009-TXZ055-220000-
NEW MEXICO-WEST TEXAS

CITY           SKY/WX    TMP DP  RH WIND       PRES   REMARKS
ALBUQUERQUE    MOSUNNY   64  29  26 S15G22    30.07F
EL PASO        SUNNY     76  24  14 NW12G22   30.03F
$$


........................KEY........................
SKY/WX - SKY CONDITION/WEATHER
TMP    - TEMPERATURE IN FAHRENHEIT
DP     - DEW POINT IN FAHRENHEIT
RH     - RELATIVE HUMIDITY IN PERCENT
WIND   - DIRECTION AND SPEED IN MILES PER HOUR (MPH)
VRB    - VARIABLE WIND DIRECTION
PRES   - MEAN SEA LEVEL PRESSURE IN INCHES OF MERCURY
         F - FALLING PRESSURE   R - RISING PRESSURE
         S - STEADY PRESSURE
VSB    - VISIBILITY IN MILES
HX     - HEAT INDEX IN FAHRENHEIT
WCI    - WIND CHILL INDEX IN FAHRENHEIT
TC     - TEMPERATURE IN CELSIUS WHICH IS ALSO KNOWN AS
         TEMPERATURE IN CENTIGRADE
AFB    - AIR FORCE BASE
         LUKE AFB IS LUKE AIR FORCE BASE
         DAVIS-MONTHAN IS DAVIS-MONTHAN AIR FORCE BASE
NAS    - NAVAL AIR STATION
         EL CENTRO NAS IS EL CENTRO NAVAL AIR STATION
N/A    - NOT AVAILABLE




USA.gov is the U.S. government's official web portal to all federal, state and local government web resources and services.